DELTA 1 DEB, 7049

Orbit data source: Space-Track

DELTA 1 DEB, 7049 is space debris in LEO originally from a launch on Tue, 06 Nov 1973 UTC launched from the Air Force Western Test Range (AFWTR). Debris objects in space refer to the collection of defunct objects orbiting the Earth. Examples of debris include non-operational satellites, rocket bodies, and fragments generated from explosions, collisions, or faulty payload assembly.

Loading next visibility...
Identifier
7049, 1973-086AR
Orbit
LEO
Country
Flag of USUS
Related business
Manufacturer
Unknown
Mission
Spacecraft
Bus & Motor
Unknown
Mass
Unknown
Launch date (UTC)
1973-11-06 (52 years ago)
Launch vehicle
Unknown
Launch site
Air Force Western Test Range (AFWTR)
Object type
Payload
Rocket body
Debris
Shape & HBR
Unknown shape, 0.1 m
Radar Cross Section
Medium (>0.1 m² and <1 m²)

Expand to show TLE details & history
Last TLE update: 13 hours ago

TLE from 13 hours ago
0 DELTA 1 DEB
1  7049U 73086AR  25297.40373683 -.00000146  00000-0 -13194-2 0  9996
2  7049 101.8103 238.9122 0250253 228.1323 251.2387 11.93499151256410
Epoch: 2025-10-24T09:41Z
TLE epoch observation values (Epoch: 2025-10-24T09:41:22.862Z)
Latitude
61.08199°
Longitude
-97.3521°
Altitude
1,789.926 km
Speed
6.962 km/s
True Right ascension
05h 24m 10s
True Declination
60° 57' 17"
Sunlit
Object was in daylight at epoch
Visualization orbit readout
Latitude
Unknown
Longitude
Unknown
Altitude
Unknown
Speed
Unknown
Apparent Right ascension
Unknown
Apparent Declination
Unknown
Sunlit
N/A
Visualization observer readout
Local Sidereal Time
17:36:50
Azimuth
Unknown
Elevation
Unknown
Doppler factor
Unknown
Orbital elements
Apogee altitude
1,910.072 km
Perigee altitude
1,505.37 km
Semi-major axis
8,085.858 km
Eccentricity
0.02503
Inclination
101.8103°
RAAN
238.9122°
Arg. of periapsis
228.1323°
True anomaly
248.55142°
Mean anomaly
251.2387°
Eccentric anomaly
249.89225°
Mean motion
2.98507 °/min
Orbital period
120.6 mins
BSTAR
-0.0013194
Loading maneuver chart data...
Computing Atmospheric mass density...
Loading historical data...
Loading historical data...
Loading historical data...
Loading historical data...
Loading historical data...
Loading historical data...
Loading historical data...

Documentation

Showing up to 5 results
|